Flag for Pakistan Weather past 2 weeks in Lahore, Pakistan

Now
91 °F

Scattered clouds.


Feels Like: 105 °F
Forecast: 80 / 94 °F
Wind: 9 mph from Southeast

Location: Lahore Airport

Current Time: Jul 28, 2014 at 1:40:52 PM

Latest Report: Jul 28, 2014 at 12:59 PM


Visibility: 2 mi

Pressure: 29.53 "Hg

Humidity: 63%

Dew point: 77 °F

Location of LahoreLocation

Historic Weather in Lahore — Graph

°F

Lahore temperature yesterday

Maximum temperature yesterday: 95 °F (at 12:25 PM)
Minimum temperature yesterday: 84 °F (at 6:00 AM)
Average temperature yesterday: 88 °F

Past Weeks' High & Low Weather Summary

 TemperatureHumidityPressure
High109 °F (Jul 13, 1:55 PM)100% (Jul 18, 12:29 PM)29.68 "Hg (Jul 18, 12:29 PM)
Low77 °F (Jul 17, 12:59 PM)12% (Jul 21, 12:59 PM)29.33 "Hg (Jul 15, 5:55 PM)
Average89 °F67%29.49 "Hg
* Reported Jul 13 12:25 PM — Jul 28 12:29 PM, Lahore, Weather by CustomWeather, © 2014

Note: Actual official high and low records may vary slightly from our data, if they occured in-between our weather recording intervals... More about our weather records

Advertising

Lahore weather history for previous 24 hours

 ConditionsComfort  
Time TempWeatherWind HumidityBarometerVisibility
12:29 PM
Jul 28
90 °FScattered clouds.13 mph67%29.53 "Hg2 mi
11:59 AM90 °FScattered clouds.13 mph67%29.56 "Hg2 mi
11:29 AM90 °FScattered clouds.13 mph67%29.56 "Hg2 mi
10:55 AM88 °FScattered clouds.14 mph70%29.56 "Hg2 mi
10:29 AM88 °FScattered clouds.12 mph70%29.56 "Hg2 mi
9:55 AM88 °FScattered clouds.12 mph70%29.56 "Hg4 mi
9:29 AM88 °FScattered clouds.12 mph70%29.56 "Hg4 mi
8:55 AM88 °FScattered clouds.9 mph70%29.56 "Hg3 mi
8:25 AM82 °FScattered clouds.10 mph79%29.56 "Hg3 mi
7:55 AM82 °FScattered clouds.10 mph79%29.56 "Hg2 mi
7:25 AM82 °FWarm.5 mph79%29.59 "HgN/A
6:55 AM82 °FScattered clouds.7 mph74%29.59 "Hg2 mi
6:25 AM82 °FScattered clouds.3 mph79%29.56 "Hg2 mi
5:55 AM82 °FScattered clouds.5 mph79%29.53 "Hg2 mi
5:25 AM81 °FScattered clouds.3 mph79%29.53 "Hg2 mi
4:55 AM81 °FPassing clouds.No wind79%29.53 "Hg2 mi
4:25 AM81 °FPassing clouds.No wind79%29.53 "Hg2 mi
3:55 AM81 °FPassing clouds.5 mph79%29.53 "Hg2 mi
3:25 AM82 °FPassing clouds.5 mph79%29.53 "Hg2 mi
2:55 AM82 °FPassing clouds.No wind79%29.53 "Hg2 mi
2:25 AM82 °FPassing clouds.No wind79%N/A2 mi
1:55 AM82 °FPassing clouds.No wind79%29.56 "Hg2 mi
1:25 AM84 °FPassing clouds.No wind79%29.59 "Hg2 mi
12:25 AM84 °FPassing clouds.5 mph79%29.59 "Hg2 mi
11:55 PM
Jul 27
84 °FPassing clouds.3 mph79%29.59 "Hg2 mi
11:25 PM84 °FPassing clouds.5 mph79%29.59 "Hg2 mi
10:55 PM84 °FPassing clouds.5 mph79%29.59 "Hg2 mi
10:25 PMN/APassing clouds.5 mphN/A29.59 "Hg2 mi
9:55 PM86 °FPassing clouds.5 mph75%29.59 "Hg2 mi
9:25 PM86 °FPassing clouds.5 mph75%29.59 "Hg2 mi
8:55 PM86 °FPassing clouds.3 mph75%29.59 "Hg2 mi
7:55 PM86 °FPassing clouds.7 mph75%29.56 "Hg2 mi
7:25 PM86 °FPassing clouds.7 mph70%29.53 "Hg2 mi
6:55 PM86 °FScattered clouds.7 mph70%29.53 "Hg2 mi
6:25 PM86 °FScattered clouds.6 mph70%29.53 "Hg2 mi
5:55 PM86 °FBroken clouds.7 mph70%29.53 "Hg2 mi
5:25 PM86 °FBroken clouds.7 mph70%29.53 "Hg2 mi
4:55 PM88 °FBroken clouds.8 mph66%29.53 "Hg2 mi
4:25 PM88 °FBroken clouds.6 mph66%29.56 "Hg2 mi
3:55 PM90 °FBroken clouds.8 mph63%29.56 "Hg2 mi
3:25 PM91 °FBroken clouds.7 mph63%29.59 "Hg2 mi
2:55 PM91 °FBroken clouds.9 mph63%29.59 "Hg2 mi
2:25 PM93 °FBroken clouds.14 mph59%29.59 "Hg2 mi
1:55 PM93 °FBroken clouds.10 mph63%29.59 "Hg2 mi
1:25 PM95 °FBroken clouds.8 mph56%29.65 "Hg2 mi
Weather by CustomWeather, © 2014

See weather overviewHow to use our weather pages